Location: 3 Angels Observatory
(30.5437°N, 88.5068°W)
Time: 02:00:04
(UTC-05:00)

Amateur Radio Satellites - All Passes

Search period start: 04 July 2015 01:30
Search period end: 05 July 2015 01:30
Location: 3 Angels Observatory, 30.5437°N, 88.5068°W

Satellite Date Start Highest point End Downlink Frequencies (MHz)
Time Altitude Azimuth
TISAT 1 04 Jul 01:39:44 01:42:53 19° 265° (W) 01:45:54 437.305
BEESAT 04 Jul 01:44:28 01:49:07 57° 75° (ENE) 01:53:49 436.000
Cosmos 2491 04 Jul 01:45:37 01:52:16 25° 72° (ENE) 01:59:14 435.465 / 435.565
SO-50 04 Jul 01:49:48 01:53:56 27° 54° (NE) 01:58:04 436.795
SWISSCUBE 04 Jul 01:59:49 02:04:35 86° 254° (WSW) 02:09:25 437.505
ITUPSAT 1 04 Jul 02:04:48 02:09:34 85° 255° (WSW) 02:14:24 437.325
YUBILEINY 04 Jul 02:14:48 02:20:00 19° 84° (E) 02:25:45 435.215
RS-15 04 Jul 02:16:22 02:27:09 75° 114° (ESE) 02:38:13 29.354- 29.394
PCSat 04 Jul 02:24:08 02:29:19 47° 250° (WSW) 02:34:27 145.827
STARS 04 Jul 02:28:30 02:30:41 14° 70° (ENE) 02:33:07 437.465
JAS-2 04 Jul 02:45:43 02:47:57 12° 90° (E) 02:50:56 435.910
Gurwin Techsat 1B 04 Jul 03:07:42 03:13:00 65° 101° (E) 03:18:16 435.225
Oscar 19 04 Jul 03:07:45 03:12:17 32° 288° (WNW) 03:16:44 437.125/150
KKS-1 04 Jul 03:08:50 03:13:18 79° 75° (ENE) 03:17:45 437.445
ITAMSAT 1 04 Jul 03:17:23 03:22:36 78° 101° (ESE) 03:27:49 435.822/435.867
BEESAT 04 Jul 03:26:20 03:27:23 10° 269° (W) 03:28:02 436.000
SO-50 04 Jul 03:30:14 03:34:26 28° 249° (WSW) 03:38:28 436.795
AIST 1 04 Jul 03:40:06 03:44:19 49° 267° (W) 03:48:28
Cosmos 2491 04 Jul 03:41:10 03:49:39 56° 268° (W) 03:58:01 435.465 / 435.565
STARS 04 Jul 04:02:43 04:06:51 39° 261° (W) 04:10:58 437.465
HORYU 2 04 Jul 04:06:55 04:10:51 31° 97° (E) 04:14:50 437.375
YUBILEINY 04 Jul 04:07:29 04:16:08 70° 278° (W) 04:24:48 435.215
JAS-2 04 Jul 04:26:44 04:33:35 90° 266° (W) 04:41:12 435.910
RS-15 04 Jul 04:31:44 04:40:46 27° 316° (NW) 04:49:38 29.354- 29.394
Cosmos 2504 04 Jul 04:43:31 04:46:39 14° 86° (E) 04:50:16 435.465 / 435.565
Gurwin Techsat 1B 04 Jul 04:50:15 04:52:29 12° 293° (WNW) 04:54:25 435.225
AO-7 04 Jul 04:51:34 04:59:56 73° 105° (ESE) 05:08:15 29.400- 29.500
MOZHAYETS 4 04 Jul 04:58:42 05:03:14 69° 259° (WSW) 05:07:49
CUBESAT XI-V 04 Jul 05:25:56 05:28:34 16° 70° (ENE) 05:31:26 437.345
VERMONT LUNAR 04 Jul 05:38:35 05:38:46 10° 140° (SE) 05:39:05 437.305
HORYU 2 04 Jul 05:44:11 05:47:17 18° 289° (WNW) 05:50:14 437.375
CUTE-I 04 Jul 05:52:19 05:53:21 11° 90° (E) 05:54:50 437.470
STRAND 1 04 Jul 06:09:06 06:12:13 17° 69° (ENE) 06:15:35 437.568
JAS-2 04 Jul 06:14:57 06:18:10 13° 293° (WNW) 06:20:59 435.910
Cubesat XI-IV 04 Jul 06:23:30 06:27:53 26° 96° (E) 06:32:20 437.490
BEESAT 3 04 Jul 06:29:11 06:32:25 24° 112° (ESE) 06:35:45 437.485
Cosmos 2504 04 Jul 06:31:19 06:38:18 67° 278° (W) 06:45:08 435.465 / 435.565
BEESAT 2 04 Jul 06:40:40 06:43:59 25° 112° (ESE) 06:47:26 435.950
DANDE 04 Jul 06:45:16 06:46:34 11° 92° (E) 06:48:27 436.750
ISS 04 Jul 06:45:41 06:47:42 16° 127° (SE) 06:49:48 145.825
AO-7 04 Jul 06:46:08 06:52:03 21° 299° (WNW) 06:57:34 29.400- 29.500
CUBESAT XI-V 04 Jul 07:01:17 07:05:43 40° 262° (W) 07:10:08 437.345
VERMONT LUNAR 04 Jul 07:12:18 07:15:23 86° 328° (NNW) 07:18:31 437.305
CUSAT 1 04 Jul 07:22:13 07:28:26 35° 96° (E) 07:33:33 437.405
PHONESAT 2.4 04 Jul 07:25:01 07:27:08 16° 141° (SE) 07:29:19 2401.200-2431.200
PRISM 04 Jul 07:25:30 07:29:38 69° 259° (WSW) 07:33:49 437.425
CUTE-I 04 Jul 07:28:39 07:33:59 67° 285° (WNW) 07:39:16 437.470
O/OREOS (USA 219) 04 Jul 07:32:15 07:36:43 89° 108° (ESE) 07:41:11 437.305
STRAND 1 04 Jul 07:46:13 07:51:06 44° 261° (W) 07:56:01 437.568
AIST 2 04 Jul 07:55:55 07:59:55 43° 114° (ESE) 08:03:59 435.215
AUBIESAT-1 04 Jul 08:01:15 08:03:19 16° 67° (ENE) 08:05:31 437.475
Cubesat XI-IV 04 Jul 08:03:18 08:07:58 30° 289° (WNW) 08:12:31 437.490
BEESAT 3 04 Jul 08:07:08 08:10:19 21° 305° (NW) 08:13:27 437.485
BEESAT 2 04 Jul 08:18:51 08:22:02 21° 306° (NW) 08:25:08 435.950
ISS 04 Jul 08:21:01 08:23:55 29° 320° (NW) 08:26:49 145.825
DANDE 04 Jul 08:21:52 08:29:44 87° 99° (E) 08:35:56 436.750
CUTE 1.7 + AOD 2 04 Jul 08:24:00 08:25:07 11° 91° (E) 08:26:33 437.475
CANX-2 04 Jul 08:26:22 08:28:32 14° 92° (E) 08:30:55 2200.000
M-CUBED/EXP-1 PRIME 04 Jul 08:33:58 08:37:12 63° 73° (ENE) 08:40:31 437.505
GOMX 1 04 Jul 08:36:42 08:40:26 32° 97° (E) 08:44:12 467.674
GONETS M04 04 Jul 08:43:58 08:52:05 45° 90° (E) 09:00:18
VERMONT LUNAR 04 Jul 08:50:17 08:52:37 19° 346° (NNW) 08:54:56 437.305
BRITE-PL 04 Jul 08:59:25 09:03:37 65° 283° (WNW) 09:07:42 437.365/2234.400
PHONESAT 2.4 04 Jul 09:01:30 09:04:54 66° 332° (NNW) 09:08:20 2401.200-2431.200
CUSAT 1 04 Jul 09:05:06 09:10:58 28° 281° (W) 09:15:38 437.405
SEEDS 04 Jul 09:10:26 09:14:21 35° 98° (E) 09:18:17 437.485
RS-15 04 Jul 09:14:45 09:19:31 13° 28° (NNE) 09:25:04 29.354- 29.394
DOVE 4 04 Jul 09:22:00 09:26:09 73° 101° (E) 09:30:20 437.250
AAUSAT CUBESAT 2 04 Jul 09:22:27 09:26:12 32° 97° (E) 09:30:00 437.432
HO-68 04 Jul 09:23:04 09:30:10 67° 103° (ESE) 09:37:17 435.675
CUBEBUG 2 04 Jul 09:25:14 09:27:09 13° 93° (E) 09:29:21 437.445
AUBIESAT-1 04 Jul 09:35:45 09:38:02 17° 261° (W) 09:40:14 437.475
AIST 2 04 Jul 09:36:20 09:38:44 14° 309° (NW) 09:40:59 435.215
Oscar 11 04 Jul 09:37:27 09:40:38 20° 95° (E) 09:43:56 145.826/435.025
DELFI C3 04 Jul 09:41:28 09:43:32 14° 93° (E) 09:45:49 145.870
UNISAT 6 04 Jul 09:42:52 09:44:29 12° 70° (ENE) 09:46:22 437.425
COMPASS 1 04 Jul 09:47:55 09:52:10 86° 101° (E) 09:56:24 437.405
CUTE 1.7 + AOD 2 04 Jul 09:57:13 10:01:18 43° 285° (WNW) 10:05:21 437.475
CANX-2 04 Jul 10:00:40 10:04:36 35° 286° (WNW) 10:08:29 2200.000
FUNcube-1 04 Jul 10:03:56 10:07:16 23° 96° (E) 10:10:45 145.935
CINEMA 3 04 Jul 10:09:47 10:13:56 68° 283° (WNW) 10:18:12 145.822/145.860
DANDE 04 Jul 10:10:15 10:13:09 12° 287° (WNW) 10:15:18 436.750
UWE-3 04 Jul 10:15:07 10:19:10 44° 99° (E) 10:23:20 435.000/436.395/437.385
GOMX 1 04 Jul 10:16:08 10:18:22 14° 289° (WNW) 10:20:23 467.674
ANTELSAT 04 Jul 10:24:49 10:28:51 41° 75° (ENE) 10:32:53 437.575/2403.000
VERMONT LUNAR 04 Jul 10:28:39 10:30:17 13° 3° (N) 10:31:56 437.305
QB50P1 04 Jul 10:31:15 10:34:06 18° 72° (ENE) 10:37:05 145.935-145.965
TIGRISAT 04 Jul 10:37:05 10:41:18 57° 76° (ENE) 10:45:30 435.000
PHONESAT 2.4 04 Jul 10:40:45 10:43:20 19° 348° (NNW) 10:45:54 2401.200-2431.200
GONETS M04 04 Jul 10:41:25 10:49:07 32° 286° (WNW) 10:56:34
NANOSAT C BR1 04 Jul 10:44:51 10:48:21 26° 73° (ENE) 10:51:56 145.865
SEEDS 04 Jul 10:47:29 10:49:52 14° 289° (WNW) 10:52:03 437.485
DX 1 04 Jul 10:48:59 10:52:34 26° 96° (E) 10:56:12 434.975-435.025
DUCHIFAT 1 04 Jul 10:51:39 10:55:22 31° 74° (ENE) 10:59:07 145.980
POLYITAN 1 04 Jul 10:56:14 11:00:08 37° 74° (ENE) 11:04:05 437.675
AAUSAT CUBESAT 2 04 Jul 10:59:00 11:01:34 15° 289° (WNW) 11:03:57 437.432
CUBEBUG 2 04 Jul 11:00:05 11:04:00 36° 285° (WNW) 11:07:58 437.445
Cosmos 2499 04 Jul 11:01:34 11:08:38 74° 94° (E) 11:15:42 435.465 / 435.565
ZACube-1 04 Jul 11:03:09 11:07:20 59° 284° (WNW) 11:11:35 437.345
BUGSAT 1 04 Jul 11:09:32 11:13:20 33° 74° (ENE) 11:17:08 437.445
UKube-1 04 Jul 11:09:50 11:13:56 42° 99° (E) 11:18:02 .
HO-68 04 Jul 11:12:30 11:17:22 19° 296° (WNW) 11:21:53 435.675
Oscar 11 04 Jul 11:13:10 11:16:46 25° 287° (WNW) 11:20:18 145.826/435.025
DELFI C3 04 Jul 11:15:05 11:18:43 31° 286° (WNW) 11:22:18 145.870
UNISAT 6 04 Jul 11:16:53 11:20:59 41° 261° (W) 11:25:02 437.425
50 SAT 04 Jul 11:21:32 11:25:12 38° 98° (E) 11:28:55 437.505
HUMSAT D 04 Jul 11:23:49 11:28:00 84° 286° (WNW) 11:32:13 437.325/437.525
RS-15 04 Jul 11:24:25 11:35:47 52° 55° (NE) 11:47:38 29.354- 29.394
AISAT 04 Jul 11:25:13 11:29:18 38° 98° (E) 11:33:24 437.250
QB50P2 04 Jul 11:25:34 11:29:50 87° 257° (WSW) 11:34:06 145.880/145.840
POPSAT HIP 1 04 Jul 11:26:22 11:30:37 88° 258° (WSW) 11:34:52 437.405
FUNcube-1 04 Jul 11:40:13 11:43:31 22° 287° (WNW) 11:46:45 145.935
CUBEBUG 1 04 Jul 11:43:56 11:47:46 31° 97° (E) 11:51:39 437.445
UWE-3 04 Jul 11:53:48 11:55:24 12° 289° (WNW) 11:56:45 435.000/436.395/437.385
ESTCUBE 1 04 Jul 11:56:18 12:00:45 56° 100° (E) 12:05:12 437.505/2401.250
ANTELSAT 04 Jul 12:04:11 12:05:52 12° 268° (W) 12:07:14 437.575/2403.000
VERMONT LUNAR 04 Jul 12:05:11 12:07:53 25° 19° (NNE) 12:10:36 437.305
QB50P1 04 Jul 12:06:07 12:09:48 27° 264° (W) 12:13:23 145.935-145.965
VELOX 1 04 Jul 12:14:25 12:18:43 53° 285° (WNW) 12:22:59 145.980
PHONESAT 2.4 04 Jul 12:19:55 12:22:09 16° 5° (N) 12:24:25 2401.200-2431.200
NANOSAT C BR1 04 Jul 12:21:08 12:24:11 18° 266° (W) 12:27:05 145.865
DX 1 04 Jul 12:25:26 12:28:40 20° 289° (WNW) 12:31:47 434.975-435.025
DUCHIFAT 1 04 Jul 12:28:37 12:31:15 15° 267° (W) 12:33:42 145.980
POLYITAN 1 04 Jul 12:34:12 12:36:13 13° 268° (W) 12:37:59 437.675
Oscar 19 04 Jul 12:40:58 12:44:27 19° 70° (ENE) 12:48:07 437.125/150
SPROUT 04 Jul 12:46:19 12:50:25 46° 99° (E) 12:54:32 437.525
BUGSAT 1 04 Jul 12:46:24 12:48:53 15° 267° (W) 12:51:10 437.445
UKube-1 04 Jul 12:47:48 12:49:44 12° 291° (WNW) 12:51:25 .
50 SAT 04 Jul 12:58:20 12:59:31 11° 289° (WNW) 13:00:28 437.505
Cosmos 2499 04 Jul 12:59:13 13:02:40 13° 292° (WNW) 13:05:33 435.465 / 435.565
AISAT 04 Jul 13:03:08 13:05:35 14° 290° (WNW) 13:07:49 437.250
CUBEBUG 1 04 Jul 13:21:05 13:23:55 17° 289° (WNW) 13:26:33 437.445
TISAT 1 04 Jul 13:28:25 13:32:36 80° 284° (WNW) 13:36:46 437.305
ESTCUBE 1 04 Jul 13:36:11 13:37:11 10° 292° (WNW) 13:37:54 437.505/2401.250
RS-15 04 Jul 13:37:17 13:48:07 40° 251° (WSW) 13:58:54 29.354- 29.394
VERMONT LUNAR 04 Jul 13:41:50 13:44:55 49° 212° (SSW) 13:48:00 437.305
BEESAT 04 Jul 13:51:01 13:54:45 23° 95° (E) 13:58:37 436.000
PHONESAT 2.4 04 Jul 13:57:34 14:00:47 35° 22° (NNE) 14:04:02 2401.200-2431.200
SWISSCUBE 04 Jul 14:06:02 14:10:30 38° 99° (E) 14:14:58 437.505
ITUPSAT 1 04 Jul 14:11:18 14:15:47 39° 99° (E) 14:20:16 437.325
Oscar 19 04 Jul 14:18:47 14:23:34 38° 262° (W) 14:28:19 437.125/150
Gurwin Techsat 1B 04 Jul 14:23:08 14:28:20 59° 75° (ENE) 14:33:34 435.225
YUBILEINY 04 Jul 14:24:45 14:33:01 46° 78° (ENE) 14:41:24 435.215
SPROUT 04 Jul 14:24:49 14:26:09 11° 291° (WNW) 14:27:13 437.525
ITAMSAT 1 04 Jul 14:29:38 14:34:47 66° 76° (ENE) 14:39:59 435.822/435.867
JAS-2 04 Jul 14:36:39 14:39:41 16° 68° (ENE) 14:43:00 435.910
Cosmos 2491 04 Jul 14:39:14 14:46:49 35° 88° (E) 14:54:37 435.465 / 435.565
ISS 04 Jul 14:53:04 14:55:22 18° 37° (NE) 14:57:43 145.825
HORYU 2 04 Jul 15:01:10 15:03:33 15° 70° (ENE) 15:06:08 437.375
KKS-1 04 Jul 15:06:14 15:09:43 23° 96° (E) 15:13:18 437.445
PCSat 04 Jul 15:16:43 15:21:54 51° 111° (ESE) 15:27:10 145.827
BEESAT 04 Jul 15:28:30 15:32:34 27° 288° (WNW) 15:36:31 436.000
PHONESAT 2.4 04 Jul 15:35:36 15:38:49 35° 215° (SW) 15:42:01 2401.200-2431.200
AO-7 04 Jul 15:44:01 15:52:08 61° 70° (ENE) 16:00:21 29.400- 29.500
SWISSCUBE 04 Jul 15:44:55 15:48:05 17° 290° (WNW) 15:51:02 437.505
ITUPSAT 1 04 Jul 15:50:14 15:53:23 17° 290° (WNW) 15:56:19 437.325
JUGNU 04 Jul 15:57:23 16:01:43 21° 168° (SSE) 16:06:07 437.505
STARS 04 Jul 15:57:39 16:01:58 58° 101° (E) 16:06:16 437.465
SO-50 04 Jul 15:58:43 16:02:40 29° 111° (ESE) 16:06:49 436.795
AIST 1 04 Jul 16:03:12 16:07:33 65° 277° (W) 16:11:56
Gurwin Techsat 1B 04 Jul 16:06:23 16:08:45 12° 269° (W) 16:10:45 435.225
ITAMSAT 1 04 Jul 16:13:40 16:14:49 10° 270° (W) 16:15:33 435.822/435.867
JAS-2 04 Jul 16:19:38 16:24:32 42° 262° (W) 16:29:29 435.910
YUBILEINY 04 Jul 16:22:09 16:29:35 31° 273° (W) 16:36:47 435.215
Cosmos 2504 04 Jul 16:23:37 16:29:44 27° 75° (ENE) 16:36:28 435.465 / 435.565
ISS 04 Jul 16:28:57 16:31:48 29° 230° (SW) 16:34:38 145.825
BEESAT 3 04 Jul 16:29:57 16:33:43 38° 59° (ENE) 16:37:27 437.485
Cosmos 2491 04 Jul 16:35:20 16:43:34 41° 283° (WNW) 16:51:40 435.465 / 435.565
HORYU 2 04 Jul 16:35:49 16:39:55 37° 262° (W) 16:43:59 437.375
BEESAT 2 04 Jul 16:42:10 16:46:00 40° 59° (ENE) 16:49:48 435.950
KKS-1 04 Jul 16:42:45 16:46:17 23° 288° (WNW) 16:49:42 437.445
SRMSAT 04 Jul 16:50:27 16:53:43 15° 164° (SSE) 16:57:05 437.500
MOZHAYETS 4 04 Jul 16:59:30 17:03:56 43° 99° (E) 17:08:22
PCSat 04 Jul 17:01:58 17:05:40 18° 307° (NW) 17:09:12 145.827
CUTE-I 04 Jul 17:09:03 17:10:31 11° 66° (ENE) 17:12:21 437.470
AO-7 04 Jul 17:38:57 17:45:26 23° 265° (W) 17:51:34 29.400- 29.500
SO-50 04 Jul 17:39:18 17:43:12 24° 307° (NW) 17:47:07 436.795
Cubesat XI-IV 04 Jul 17:40:14 17:44:30 25° 70° (ENE) 17:48:54 437.490
JUGNU 04 Jul 17:45:11 17:50:16 29° 177° (S) 17:55:21 437.505
O/OREOS (USA 219) 04 Jul 17:47:44 17:52:15 66° 70° (ENE) 17:56:47 437.305
AIST 2 04 Jul 18:01:00 18:05:11 77° 62° (ENE) 18:09:16 435.215
BEESAT 3 04 Jul 18:09:40 18:11:21 12° 251° (WSW) 18:12:49 437.485
Cosmos 2504 04 Jul 18:14:50 18:22:08 48° 269° (W) 18:29:52 435.465 / 435.565
BEESAT 2 04 Jul 18:22:17 18:23:43 11° 251° (WSW) 18:24:54 435.950
SRMSAT 04 Jul 18:37:33 18:42:23 26° 172° (S) 18:47:13 437.500
MOZHAYETS 4 04 Jul 18:38:18 18:40:50 14° 290° (WNW) 18:43:08
CUTE-I 04 Jul 18:44:43 18:50:04 72° 258° (WSW) 18:55:27 437.470
CUBESAT XI-V 04 Jul 19:03:20 19:08:01 79° 100° (E) 19:12:39 437.345
GONETS M04 04 Jul 19:03:29 19:07:45 15° 66° (ENE) 19:12:43
DANDE 04 Jul 19:11:57 19:13:59 20° 77° (ENE) 19:16:03 436.750
PRISM 04 Jul 19:13:54 19:17:18 25° 96° (E) 19:20:47 437.425
Cubesat XI-IV 04 Jul 19:19:44 19:24:29 31° 263° (W) 19:29:10 437.490
JUGNU 04 Jul 19:33:54 19:38:50 26° 187° (S) 19:43:43 437.505
GOMX 1 04 Jul 19:39:07 19:43:11 24° 73° (ENE) 19:47:12 467.674
HO-68 04 Jul 19:46:27 19:52:11 28° 67° (ENE) 19:58:07 435.675
CUSAT 1 04 Jul 19:48:52 19:51:11 28° 264° (W) 19:53:36 437.405
SEEDS 04 Jul 19:59:03 20:00:42 13° 70° (ENE) 20:02:36 437.485
STRAND 1 04 Jul 20:02:11 20:07:20 82° 285° (WNW) 20:12:28 437.568
BRITE-PL 04 Jul 20:03:05 20:08:40 76° 77° (ENE) 20:13:57 437.365/2234.400
AAUSAT CUBESAT 2 04 Jul 20:10:26 20:11:19 11° 70° (ENE) 20:12:27 437.432
DOVE 4 04 Jul 20:21:40 20:26:18 41° 75° (ENE) 20:30:43 437.250
SRMSAT 04 Jul 20:26:02 20:31:05 29° 182° (S) 20:36:08 437.500
COMPASS 1 04 Jul 20:34:02 20:37:28 27° 73° (ENE) 20:41:00 437.405
CUTE 1.7 + AOD 2 04 Jul 20:44:07 20:48:15 61° 76° (ENE) 20:52:24 437.475
CANX-2 04 Jul 20:47:27 20:51:38 78° 79° (ENE) 20:55:51 2200.000
PRISM 04 Jul 20:49:33 20:52:36 19° 289° (WNW) 20:55:31 437.425
GONETS M04 04 Jul 20:57:06 21:05:49 84° 265° (W) 21:14:30
Cosmos 2499 04 Jul 20:59:32 21:04:38 19° 71° (ENE) 21:10:25 435.465 / 435.565
CINEMA 3 04 Jul 21:05:45 21:10:14 54° 76° (ENE) 21:14:32 145.822/145.860
UWE-3 04 Jul 21:08:00 21:10:51 18° 72° (ENE) 21:13:48 435.000/436.395/437.385
GOMX 1 04 Jul 21:16:34 21:21:11 30° 263° (W) 21:25:32 467.674
AUBIESAT-1 04 Jul 21:18:56 21:23:05 43° 104° (ESE) 21:27:31 437.475
JUGNU 04 Jul 21:23:46 21:27:20 16° 196° (SSW) 21:30:48 437.505
SEEDS 04 Jul 21:32:17 21:36:11 38° 262° (W) 21:40:06 437.485
HO-68 04 Jul 21:32:53 21:39:40 45° 260° (W) 21:46:25 435.675
DX 1 04 Jul 21:41:11 21:42:40 12° 69° (ENE) 21:44:25 434.975-435.025
AAUSAT CUBESAT 2 04 Jul 21:42:37 21:46:33 44° 261° (W) 21:50:31 437.432
CUBEBUG 2 04 Jul 21:52:21 21:56:42 89° 92° (E) 22:00:58 437.445
M-CUBED/EXP-1 PRIME 04 Jul 21:53:21 21:57:39 61° 288° (WNW) 22:02:12 437.505
ZACube-1 04 Jul 21:53:33 21:57:39 50° 76° (ENE) 22:01:44 437.345
DELFI C3 04 Jul 21:56:06 22:00:03 69° 77° (ENE) 22:04:03 145.870
UKube-1 04 Jul 22:00:08 22:03:04 18° 71° (ENE) 22:06:08 .
DOVE 4 04 Jul 22:01:07 22:04:10 16° 266° (W) 22:06:54 437.250
Oscar 11 04 Jul 22:01:28 22:05:44 66° 259° (W) 22:10:00 145.826/435.025
COMPASS 1 04 Jul 22:10:21 22:13:10 17° 266° (W) 22:15:50 437.405
HUMSAT D 04 Jul 22:10:24 22:13:59 30° 74° (ENE) 22:17:37 437.325/437.525
SRMSAT 04 Jul 22:15:21 22:19:47 22° 192° (SSW) 22:24:09 437.500
AISAT 04 Jul 22:18:25 22:21:24 18° 71° (ENE) 22:24:32 437.250
ANTELSAT 04 Jul 22:23:29 22:25:41 14° 93° (E) 22:28:10 437.575/2403.000
FUNcube-1 04 Jul 22:29:32 22:33:41 54° 260° (W) 22:37:46 145.935
TIGRISAT 04 Jul 22:34:58 22:38:01 19° 95° (E) 22:41:15 435.000
CUBEBUG 1 04 Jul 22:36:01 22:38:16 14° 70° (ENE) 22:40:45 437.445
UWE-3 04 Jul 22:43:34 22:47:14 27° 263° (W) 22:50:47 435.000/436.395/437.385
Cosmos 2499 04 Jul 22:50:26 22:58:25 70° 266° (W) 23:06:56 435.465 / 435.565
ESTCUBE 1 04 Jul 22:50:51 22:54:34 26° 72° (ENE) 22:58:24 437.505/2401.250
AUBIESAT-1 04 Jul 22:55:04 22:57:34 15° 293° (WNW) 22:59:56 437.475
GONETS M04 04 Jul 22:59:03 23:01:40 11° 278° (W) 23:03:24
VELOX 1 04 Jul 23:06:00 23:10:26 66° 76° (ENE) 23:14:53 145.980
UNISAT 6 04 Jul 23:13:45 23:18:07 59° 100° (E) 23:22:35 437.425
DX 1 04 Jul 23:14:20 23:18:34 46° 261° (W) 23:22:47 434.975-435.025
QB50P2 04 Jul 23:17:08 23:20:27 23° 96° (E) 23:23:51 145.880/145.840
POPSAT HIP 1 04 Jul 23:17:48 23:21:04 22° 96° (E) 23:24:25 437.405
50 SAT 04 Jul 23:34:25 23:38:02 39° 262° (W) 23:41:38 437.505
UKube-1 04 Jul 23:35:14 23:39:01 28° 263° (W) 23:42:44 .
SPROUT 04 Jul 23:35:58 23:38:51 18° 72° (ENE) 23:41:54 437.525
HUMSAT D 04 Jul 23:47:26 23:49:49 14° 267° (W) 23:52:00 437.325/437.525
AISAT 04 Jul 23:53:47 23:57:46 30° 263° (W) 00:01:42 437.250
QB50P1 04 Jul 23:56:02 00:00:14 73° 101° (E) 00:04:25 145.935-145.965
ANTELSAT 04 Jul 23:58:31 00:02:38 38° 285° (WNW) 00:06:48 437.575/2403.000
SRMSAT 05 Jul 00:07:42 00:08:25 10° 199° (SSW) 00:08:58 437.500
NANOSAT C BR1 05 Jul 00:10:06 00:14:18 74° 283° (WNW) 00:18:28 145.865
CUBEBUG 1 05 Jul 00:10:10 00:14:20 39° 262° (W) 00:18:29 437.445
TIGRISAT 05 Jul 00:10:58 00:14:46 29° 287° (WNW) 00:18:36 435.000
PCSat 05 Jul 00:12:05 00:14:37 14° 51° (NE) 00:17:26 145.827
TISAT 1 05 Jul 00:15:02 00:18:53 34° 74° (ENE) 00:22:45 437.305
DUCHIFAT 1 05 Jul 00:16:57 00:21:05 62° 284° (WNW) 00:25:12 145.980
POLYITAN 1 05 Jul 00:22:36 00:26:41 49° 285° (WNW) 00:30:44 437.675
ESTCUBE 1 05 Jul 00:27:54 00:31:24 21° 265° (W) 00:34:49 437.505/2401.250
BUGSAT 1 05 Jul 00:32:13 00:36:14 62° 284° (WNW) 00:40:11 437.445
QB50P2 05 Jul 00:53:01 00:56:14 21° 288° (WNW) 00:59:21 145.880/145.840
BEESAT 05 Jul 00:53:18 00:55:50 15° 69° (ENE) 00:58:35 436.000
POPSAT HIP 1 05 Jul 00:53:36 00:56:51 21° 288° (WNW) 00:59:59 437.405
Cosmos 2491 05 Jul 01:00:33 01:02:05 11° 63° (ENE) 01:04:33 435.465 / 435.565
SWISSCUBE 05 Jul 01:07:39 01:11:22 24° 71° (ENE) 01:15:15 437.505
SPROUT 05 Jul 01:11:02 01:14:47 28° 264° (W) 01:18:27 437.525
ITUPSAT 1 05 Jul 01:13:07 01:16:54 24° 71° (ENE) 01:20:49 437.325
